Location: Sobotiste
(48.7170°N, 17.4000°E)
Time: 16:41:10
(UTC+02:00)

ISS - Visible Passes

Search period start: 26 September 2018 00:00
Search period end: 06 October 2018 00:00
Orbit: 403 x 408 km, 51.6° (Epoch: 26 September)

Date Brightness Start Highest point End Pass type
(mag) Time Alt. Az. Time Alt. Az. Time Alt. Az.
26 Sep -3.9 20:11:56 10° WSW 20:15:14 88° NNW 20:16:23 38° ENE visible
26 Sep -0.5 21:48:44 10° WNW 21:49:04 12° WNW 21:49:04 12° WNW visible
27 Sep -3.7 19:20:06 10° SW 19:23:22 63° SSE 19:26:35 10° ENE visible
27 Sep -2.6 20:56:43 10° W 20:59:15 42° NW 20:59:15 42° NW visible
28 Sep -3.4 20:04:41 10° W 20:07:58 60° NNW 20:09:23 30° ENE visible
28 Sep -0.6 21:41:30 10° WNW 21:42:03 14° WNW 21:42:03 14° WNW visible
29 Sep -3.7 19:12:41 10° WSW 19:16:00 78° NNW 19:19:18 10° ENE visible
29 Sep -2.6 20:49:31 10° WNW 20:52:07 41° NW 20:52:07 41° NW visible
30 Sep -3.2 19:57:28 10° W 20:00:42 49° N 20:02:08 28° ENE visible
30 Sep -0.6 21:34:10 10° WNW 21:34:48 15° WNW 21:34:48 15° WNW visible
01 Oct -3.3 19:05:24 10° W 19:08:39 56° N 19:11:56 10° ENE visible
01 Oct -2.8 20:42:12 10° WNW 20:44:47 44° NW 20:44:47 44° NW visible
02 Oct -3.2 19:50:10 10° WNW 19:53:23 49° N 19:54:46 28° ENE visible
02 Oct -0.7 21:26:45 10° WNW 21:27:26 15° WNW 21:27:26 15° WNW visible
03 Oct -3.2 18:58:06 10° W 19:01:19 48° N 19:04:33 10° ENE visible
03 Oct -3.1 20:34:45 10° WNW 20:37:24 52° NW 20:37:24 52° NW visible
04 Oct -3.5 19:42:45 10° WNW 19:46:01 58° NNE 19:47:23 30° E visible
04 Oct -0.7 21:19:20 10° WNW 21:20:03 15° W 21:20:03 15° W visible
05 Oct -3.3 18:50:42 10° WNW 18:53:57 50° N 18:57:10 10° E visible
05 Oct -3.2 20:27:16 10° WNW 20:30:03 56° W 20:30:03 56° W visible
